Pampa, TX

4:21 AM CDT on May 26, 2017 (GMT -0500)
Perry Lefors

Weather History for KPPA - June, 2013

Change the Weather History Date:

Friday, June 21, 2013

  Actual Average Record
Temperature  
Mean Temperature 78 °F -  
Max Temperature 89 °F 88 °F 102 °F (1981)
Min Temperature 69 °F 63 °F 53 °F (1979)
Cooling Degree Days 14    
Growing Degree Days 28 (Base 50)    
Moisture  
Dew Point 59 °F    
Average Humidity 51    
Maximum Humidity 79    
Minimum Humidity 26    
Precipitation  
Precipitation 0.00 in - - ()
Sea Level Pressure  
Sea Level Pressure 29.97 in    
Wind  
Wind Speed 22 mph (South)    
Max Wind Speed 36 mph    
Max Gust Speed 43 mph    
Visibility 10 miles    
Events Rain    
Averages and records for this station are not official NWS values.
T = Trace of Precipitation, MM = Missing Value Source: NWS Daily Summary

Daily Weather History Graph

Daily Weather History Graph

Search for Another Location

Airport or City:

Trip Planner

Search our weather history database for the weather conditions in past years. The results will help you decide how hot, cold, wet, or windy it might be!

Date:

Astronomy

Jun. 21, 2013 Rise Set
Actual Time 6:28 AM CDT 9:03 PM CDT
Civil Twilight 5:58 AM CDT 9:33 PM CDT
Nautical Twilight 5:21 AM CDT 10:10 PM CDT
Astronomical Twilight 4:40 AM CDT 10:51 PM CDT
Moon 7:17 PM CDT (6/21) 4:43 AM CDT (6/21)
Length of Visible Light 15h 34m
Length of Day
14h 34m
Waxing Gibbous, 95% of the Moon is Illuminated
Jun 21
Waxing Gibbous
Jun 23
Full
Jun 29
Last Quarter
Jul 8
New
Jul 15
First Quarter

Hourly Weather History & Observations

Time (CDT) Temp. Heat Index Dew Point Humidity Pressure Visibility Wind Dir Wind Speed Gust Speed Precip Events Conditions
12:15 AM 80.6 °F - 44.4 °F 28% 29.91 in 10.0 mi South 24.2 mph 29.9 mph N/A   Clear
12:35 AM 80.1 °F - 45.3 °F 29% 29.91 in 10.0 mi SSE 20.7 mph - N/A   Clear
12:55 AM 81.5 °F - 43.9 °F 26% 29.90 in 10.0 mi South 18.4 mph 24.2 mph N/A   Clear
1:15 AM 81.0 °F - 43.9 °F 27% 29.93 in 10.0 mi SSW 16.1 mph - N/A   Clear
1:35 AM 82.0 °F - 43.7 °F 26% 29.93 in 10.0 mi SW 35.7 mph 42.6 mph N/A   Clear
1:55 AM 79.5 °F - 45.9 °F 30% 29.94 in 10.0 mi SSW 29.9 mph 41.4 mph N/A   Clear
2:15 AM 77.2 °F - 48.4 °F 36% 29.95 in 10.0 mi SSW 29.9 mph 35.7 mph N/A   Clear
2:35 AM 76.6 °F - 50.2 °F 39% 29.95 in 10.0 mi SSW 24.2 mph 33.4 mph N/A   Clear
2:55 AM 75.6 °F - 52.0 °F 44% 29.96 in 10.0 mi SW 17.3 mph 26.5 mph N/A   Clear
3:15 AM 75.2 °F - 52.9 °F 46% 29.96 in 10.0 mi SW 21.9 mph 27.6 mph N/A   Clear
3:35 AM 75.4 °F - 53.8 °F 47% 29.97 in 10.0 mi SSW 24.2 mph 29.9 mph N/A   Clear
3:55 AM 75.2 °F - 54.5 °F 48% 29.97 in 10.0 mi SSW 18.4 mph - N/A   Clear
4:15 AM 75.0 °F - 55.0 °F 50% 29.96 in 10.0 mi SW 18.4 mph 24.2 mph N/A   Clear
4:35 AM 75.2 °F - 54.7 °F 49% 29.93 in 10.0 mi WSW 26.5 mph 32.2 mph N/A   Scattered Clouds
4:55 AM 76.1 °F - 53.8 °F 46% 29.93 in 10.0 mi West 19.6 mph 33.4 mph N/A   Scattered Clouds
5:15 AM 75.0 °F - 55.4 °F 50% 29.94 in 10.0 mi SW 19.6 mph 27.6 mph N/A   Scattered Clouds
5:35 AM 74.8 °F - 55.8 °F 51% 29.94 in 10.0 mi SW 23.0 mph 27.6 mph N/A   Clear
5:55 AM 73.9 °F - 57.0 °F 55% 29.95 in 10.0 mi SSW 19.6 mph 26.5 mph N/A   Clear
6:15 AM 73.4 °F - 58.5 °F 59% 29.96 in 10.0 mi SSW 18.4 mph - N/A   Clear
6:35 AM 72.5 °F - 58.5 °F 61% 29.97 in 10.0 mi SSW 13.8 mph - N/A   Clear
6:55 AM 72.1 °F - 59.4 °F 64% 30.00 in 10.0 mi SW 11.5 mph - N/A   Clear
7:15 AM 71.6 °F - 59.9 °F 66% 30.01 in 10.0 mi South 10.4 mph - N/A   Clear
7:35 AM 71.4 °F - 59.9 °F 67% 30.02 in 10.0 mi South 10.4 mph - N/A   Scattered Clouds
7:55 AM 71.6 °F - 59.9 °F 66% 30.02 in 10.0 mi South 10.4 mph - N/A   Scattered Clouds
8:15 AM 72.0 °F - 59.9 °F 66% 30.03 in 10.0 mi South 11.5 mph 16.1 mph N/A   Clear
8:35 AM 69.8 °F - 61.0 °F 73% 30.04 in 7.0 mi SW 9.2 mph 19.6 mph N/A   Drizzle
8:55 AM 69.4 °F - 62.6 °F 79% 30.05 in 10.0 mi SW 9.2 mph - N/A Rain Rain
9:15 AM 71.4 °F - 62.8 °F 74% 30.05 in 10.0 mi South 9.2 mph - N/A   Mostly Cloudy
9:35 AM 75.6 °F - 62.6 °F 64% 30.04 in 10.0 mi South 16.1 mph - N/A   Clear
9:55 AM 75.6 °F - 62.8 °F 64% 30.05 in 10.0 mi South 16.1 mph 21.9 mph N/A   Clear
10:15 AM 77.9 °F - 63.7 °F 61% 30.04 in 10.0 mi South 18.4 mph 23.0 mph N/A   Clear
10:35 AM 77.4 °F - 64.0 °F 63% 30.03 in 10.0 mi South 16.1 mph 25.3 mph N/A   Clear
10:55 AM 77.0 °F - 63.5 °F 63% 30.03 in 10.0 mi South 19.6 mph 25.3 mph N/A   Clear
11:15 AM 78.6 °F - 63.7 °F 60% 30.03 in 10.0 mi South 23.0 mph 32.2 mph N/A   Clear
11:35 AM 79.5 °F - 63.9 °F 59% 30.03 in 10.0 mi South 24.2 mph 28.8 mph N/A   Clear
11:55 AM 82.2 °F 83.5 °F 63.5 °F 53% 30.03 in 10.0 mi South 24.2 mph 31.1 mph N/A   Clear
12:15 PM 84.2 °F 85.4 °F 63.9 °F 50% 30.03 in 10.0 mi South 24.2 mph 32.2 mph N/A   Clear
12:35 PM 82.8 °F 84.2 °F 63.9 °F 53% 30.02 in 10.0 mi South 27.6 mph 32.2 mph N/A   Clear
12:55 PM 81.9 °F 83.4 °F 64.4 °F 55% 30.01 in 10.0 mi South 26.5 mph 33.4 mph N/A   Clear
1:15 PM 81.7 °F 83.5 °F 65.1 °F 57% 30.02 in 10.0 mi South 23.0 mph 28.8 mph N/A   Clear
1:35 PM 81.5 °F 82.9 °F 63.9 °F 55% 30.01 in 10.0 mi South 23.0 mph 31.1 mph N/A   Scattered Clouds
1:55 PM 81.3 °F 83.0 °F 64.8 °F 57% 30.02 in 10.0 mi South 25.3 mph 32.2 mph N/A   Clear
2:15 PM 85.3 °F 87.1 °F 65.1 °F 51% 30.01 in 10.0 mi South 20.7 mph 33.4 mph N/A   Clear
2:35 PM 86.2 °F 87.6 °F 64.6 °F 48% 30.00 in 10.0 mi South 20.7 mph 27.6 mph N/A   Clear
2:55 PM 87.1 °F 88.0 °F 63.7 °F 45% 30.00 in 10.0 mi South 21.9 mph 27.6 mph N/A   Clear
3:15 PM 87.8 °F 88.8 °F 63.3 °F 44% 29.99 in 10.0 mi South 26.5 mph 33.4 mph N/A   Clear
3:35 PM 87.6 °F 89.1 °F 64.2 °F 46% 29.98 in 10.0 mi South 26.5 mph 32.2 mph N/A   Clear
3:55 PM 88.5 °F 89.5 °F 63.1 °F 43% 29.97 in 10.0 mi South 27.6 mph 34.5 mph N/A   Clear
4:15 PM 88.3 °F 89.9 °F 64.2 °F 45% 29.97 in 7.0 mi South 23.0 mph 32.2 mph N/A   Clear
4:35 PM 88.5 °F 89.8 °F 63.9 °F 44% 29.97 in 10.0 mi South 24.2 mph 32.2 mph N/A   Clear
4:55 PM 88.7 °F 89.8 °F 63.3 °F 43% 29.96 in 10.0 mi South 26.5 mph 32.2 mph N/A   Clear
5:15 PM 88.3 °F 88.9 °F 62.6 °F 42% 29.96 in 10.0 mi South 27.6 mph 35.7 mph N/A   Clear
5:35 PM 87.6 °F 88.2 °F 62.6 °F 43% 29.95 in 10.0 mi South 29.9 mph 36.8 mph N/A   Clear
5:55 PM 87.6 °F 88.2 °F 62.8 °F 43% 29.94 in 10.0 mi South 31.1 mph 38.0 mph N/A   Clear
6:15 PM 87.1 °F 87.5 °F 62.2 °F 43% 29.93 in 10.0 mi South 28.8 mph 36.8 mph N/A   Clear
6:35 PM 86.5 °F 86.8 °F 61.9 °F 43% 29.93 in 10.0 mi South 28.8 mph 34.5 mph N/A   Clear
6:55 PM 85.5 °F 85.7 °F 61.5 °F 44% 29.92 in 10.0 mi South 28.8 mph 38.0 mph N/A   Clear
7:15 PM 85.3 °F 85.7 °F 61.5 °F 45% 29.92 in 10.0 mi South 24.2 mph 36.8 mph N/A   Clear
7:35 PM 84.4 °F 84.8 °F 61.5 °F 46% 29.92 in 10.0 mi South 29.9 mph 39.1 mph N/A   Clear
7:55 PM 83.5 °F 84.1 °F 61.7 °F 48% 29.94 in 10.0 mi South 24.2 mph 32.2 mph N/A   Clear
8:15 PM 82.4 °F 83.0 °F 61.3 °F 49% 29.93 in 10.0 mi South 23.0 mph 31.1 mph N/A   Clear
8:35 PM 81.5 °F 82.2 °F 61.2 °F 50% 29.94 in 10.0 mi South 23.0 mph 31.1 mph N/A   Clear
8:55 PM 80.4 °F 81.3 °F 61.0 °F 51% 29.95 in 10.0 mi SSE 20.7 mph 25.3 mph N/A   Clear
9:15 PM 79.9 °F - 61.2 °F 53% 29.95 in 10.0 mi South 21.9 mph 28.8 mph N/A   Clear
9:35 PM 79.5 °F - 60.8 °F 53% 29.95 in 10.0 mi South 23.0 mph 27.6 mph N/A   Clear
9:55 PM 79.2 °F - 59.9 °F 52% 29.95 in 10.0 mi South 23.0 mph 28.8 mph N/A   Clear
10:15 PM 79.0 °F - 59.2 °F 51% 29.95 in 10.0 mi South 25.3 mph 32.2 mph N/A   Clear
10:35 PM 78.8 °F - 59.0 °F 51% 29.96 in 10.0 mi South 21.9 mph 29.9 mph N/A   Clear
10:55 PM 78.4 °F - 58.6 °F 50% 29.96 in 10.0 mi South 20.7 mph 29.9 mph N/A   Clear
11:15 PM 78.1 °F - 58.8 °F 51% 29.96 in 10.0 mi South 19.6 mph 29.9 mph N/A   Clear
11:35 PM 77.9 °F - 59.0 °F 52% 29.96 in 10.0 mi South 23.0 mph 27.6 mph N/A   Clear
11:55 PM 77.5 °F - 58.6 °F 52% 29.96 in 10.0 mi South 23.0 mph 32.2 mph N/A   Clear